Station OBGN6 - 8311030 - Ogdensburg, NY Image indicating link to RSS feed of recent meteorological observations for station OBGN6


Conditions at OBGN6 as of
(4:30 am EDT)
0830 GMT on 07/13/2024:
     

Click on the graph icon in the table below to see a time series plot of the last five days of that observation.

5-day plot - Atmospheric Pressure Atmospheric Pressure (PRES):30.09 in
5-day plot - Air Temperature Air Temperature (ATMP): 68.4 °F
NOS Water Level Observation Network Water Level
Previous observations
TIME
(EDT)
5-day plot - Wind Direction
WDIR
 
5-day plot - Wind Speed
WSPD
kts
5-day plot - Wind Gust
GST
kts
5-day plot - Wave Height
WVHT
ft
5-day plot - Dominant Wave Period
DPD
sec
5-day plot - Average Wave Period
APD
sec
5-day plot - Mean Wave Direction
MWD
 
5-day plot - Atmospheric Pressure
PRES
in
5-day plot - Pressure Tendency
PTDY
in
5-day plot - Air Temperature
ATMP
°F
5-day plot - Water Temperature
WTMP
°F
5-day plot - Dew Point
DEWP
°F
5-day plot - Salinity
SAL
psu
5-day plot - Visibility
VIS
nmi
5-day plot - Tide (above MLLW)
TIDE
ft
2024-07-13 04:24 am-------30.09- 68.4-----
2024-07-13 04:18 am-------30.09- 68.4-----
2024-07-13 04:12 am-------30.09- 68.2-----
2024-07-13 04:06 am-------30.09- 68.2-----
2024-07-13 04:00 am--------- 68.0-----
2024-07-13 03:54 am--------- 68.2-----
2024-07-13 03:48 am-------30.09- 68.4-----
2024-07-13 03:42 am-------30.09- 68.2-----
2024-07-13 03:36 am-------30.09- 68.2-----
2024-07-13 03:30 am-------30.09- 68.2-----
2024-07-13 03:24 am-------30.09- 68.2-----
2024-07-13 03:18 am-------30.09- 68.2-----
2024-07-13 03:12 am-------30.09- 68.4-----
2024-07-13 03:06 am-------30.09- 68.5-----
2024-07-13 03:00 am-------30.09-0.02 68.5-----
2024-07-13 02:54 am-------30.09- 68.7-----
2024-07-13 02:48 am-------30.09- 69.1-----
2024-07-13 02:42 am-------30.09- 69.3-----
2024-07-13 02:36 am-------30.09- 69.3-----
2024-07-13 02:30 am-------30.10- 69.3-----
2024-07-13 02:24 am-------30.10- 69.3-----
2024-07-13 02:18 am-------30.10- 69.4-----
2024-07-13 02:12 am-------30.10- 69.6-----
2024-07-13 02:06 am-------30.10- 69.6-----
2024-07-13 02:00 am-------30.10-0.01 69.8-----
2024-07-13 01:54 am-------30.10- 70.0-----
2024-07-13 01:48 am-------30.10- 70.0-----
2024-07-13 01:42 am-------30.11- 70.3-----
2024-07-13 01:36 am-------30.10- 70.3-----
2024-07-13 01:30 am-------30.10- 70.7-----
2024-07-13 01:24 am-------30.11- 71.4-----
2024-07-13 01:18 am-------30.11- 71.4-----
2024-07-13 01:12 am-------30.10- 71.6-----
2024-07-13 01:06 am-------30.10- 71.4-----
2024-07-13 01:00 am-------30.11+0.00 71.4-----
2024-07-13 12:54 am-------30.11- 71.1-----
2024-07-13 12:48 am-------30.11- 70.7-----
2024-07-13 12:42 am-------30.11- 71.1-----
2024-07-13 12:36 am-------30.11- 71.2-----
2024-07-13 12:30 am-------30.11- 71.8-----
2024-07-13 12:24 am-------30.11- 72.0-----
2024-07-13 12:18 am-------30.11- 72.5-----
2024-07-13 12:12 am-------30.11- 72.5-----
2024-07-13 12:06 am-------30.11- 72.5-----
2024-07-13 12:00 am-------30.11+0.02 72.5-----
2024-07-12 11:54 pm-------30.11- 72.3-----
2024-07-12 11:48 pm-------30.11- 72.3-----
2024-07-12 11:42 pm-------30.11- 72.3-----
2024-07-12 11:36 pm-------30.11- 72.5-----
2024-07-12 11:30 pm-------30.11- 72.5-----
2024-07-12 11:24 pm-------30.11- 72.7-----
2024-07-12 11:18 pm-------30.11- 72.9-----
2024-07-12 11:12 pm-------30.11- 73.4-----
2024-07-12 11:06 pm-------30.11- 73.8-----
2024-07-12 11:00 pm-------30.11+0.02 73.4-----
2024-07-12 10:54 pm-------30.11- 73.6-----
2024-07-12 10:48 pm-------30.11- 73.8-----
2024-07-12 10:42 pm-------30.11- 73.9-----
2024-07-12 10:36 pm-------30.11- 74.3-----
2024-07-12 10:30 pm-------30.11- 74.5-----
2024-07-12 10:24 pm-------30.11- 74.8-----
2024-07-12 10:18 pm-------30.11- 75.0-----
2024-07-12 10:12 pm-------30.11- 75.0-----
2024-07-12 10:06 pm-------30.11- 75.4-----
2024-07-12 10:00 pm-------30.11+0.03 75.4-----
2024-07-12 09:54 pm-------30.11- 75.6-----
2024-07-12 09:48 pm-------30.11- 75.6-----
2024-07-12 09:42 pm-------30.11- 75.7-----
2024-07-12 09:36 pm-------30.11- 75.9-----
2024-07-12 09:30 pm-------30.11- 75.9-----
2024-07-12 09:24 pm-------30.11- 76.1-----
2024-07-12 09:18 pm-------30.11- 76.3-----
2024-07-12 09:12 pm-------30.10- 76.6-----
2024-07-12 09:06 pm-------30.10- 76.8-----
2024-07-12 09:00 pm-------30.09+0.01 77.2-----
2024-07-12 08:54 pm-------30.09- 77.5-----
2024-07-12 08:48 pm-------30.09- 77.2-----
2024-07-12 08:42 pm-------30.09- 76.5-----
2024-07-12 08:36 pm-------30.09- 76.8-----
2024-07-12 08:30 pm-------30.09- 76.8-----
2024-07-12 08:24 pm-------30.09- 76.8-----
2024-07-12 08:18 pm-------30.09- 78.1-----
2024-07-12 08:12 pm-------30.09- 79.0-----
2024-07-12 08:06 pm-------30.09- 79.5-----
2024-07-12 08:00 pm-------30.09+0.00 80.1-----
2024-07-12 07:54 pm-------30.09- 80.6-----
2024-07-12 07:48 pm-------30.09- 80.4-----
2024-07-12 07:42 pm-------30.08- 80.4-----
2024-07-12 07:36 pm-------30.08- 80.4-----
2024-07-12 07:30 pm-------30.08- 80.2-----
2024-07-12 07:24 pm-------30.08- 80.2-----
2024-07-12 07:18 pm-------30.08- 79.9-----
2024-07-12 07:12 pm-------30.08- 79.5-----
2024-07-12 07:06 pm-------30.08- 79.7-----
2024-07-12 07:00 pm-------30.08-0.02 80.1-----
2024-07-12 06:54 pm-------30.08- 80.1-----
2024-07-12 06:48 pm-------30.08-------
2024-07-12 06:42 pm-------30.08-------
2024-07-12 06:36 pm-------30.08-------
2024-07-12 06:30 pm-------30.08- 79.7-----
2024-07-12 06:24 pm-------30.08- 80.2-----
2024-07-12 06:18 pm-------30.08-------
2024-07-12 06:12 pm-------30.08-------
2024-07-12 06:06 pm-------30.08-------
2024-07-12 06:00 pm-------30.08-0.04 80.6-----
2024-07-12 05:54 pm-------30.08- 80.1-----
2024-07-12 05:48 pm-------30.08- 80.6-----
2024-07-12 05:42 pm-------30.08- 80.8-----
2024-07-12 05:36 pm-------30.08- 80.1-----
2024-07-12 05:30 pm-------30.08- 79.5-----
2024-07-12 05:24 pm-------30.08- 79.2-----
2024-07-12 05:18 pm-------30.09- 79.2-----
2024-07-12 05:12 pm-------30.09- 78.1-----
2024-07-12 05:06 pm-------30.09- 77.2-----
2024-07-12 05:00 pm-------30.09-0.03 77.5-----
2024-07-12 04:54 pm-------30.09- 79.0-----
2024-07-12 04:48 pm-------30.09- 79.0-----
2024-07-12 04:42 pm-------30.09- 78.4-----
2024-07-12 04:36 pm-------30.09- 79.2-----
2024-07-12 04:30 pm-------30.09- 78.1-----
2024-07-12 04:24 pm-------30.09- 78.4-----
2024-07-12 04:18 pm-------30.10- 78.6-----
2024-07-12 04:12 pm-------30.10- 77.9-----
2024-07-12 04:06 pm-------30.10- 77.4-----
2024-07-12 04:00 pm-------30.10-0.02 76.8-----
2024-07-12 03:54 pm-------30.10- 76.5-----
2024-07-12 03:48 pm-------30.10- 77.4-----
2024-07-12 03:42 pm-------30.11- 76.8-----
2024-07-12 03:36 pm-------30.11- 78.4-----
2024-07-12 03:30 pm-------30.11- 79.0-----
2024-07-12 03:24 pm-------30.11- 78.4-----
2024-07-12 03:18 pm-------30.11- 77.7-----
2024-07-12 03:12 pm-------30.11- 78.3-----
2024-07-12 03:06 pm-------30.11- 78.1-----
2024-07-12 03:00 pm-------30.11-0.02 78.1-----
2024-07-12 02:54 pm-------30.11- 78.1-----
2024-07-12 02:48 pm-------30.11- 77.2-----
2024-07-12 02:42 pm-------30.11- 77.4-----
2024-07-12 02:36 pm-------30.11- 77.0-----
2024-07-12 02:30 pm-------30.12- 77.0-----
2024-07-12 02:24 pm-------30.11- 76.8-----
2024-07-12 02:18 pm-------30.11- 76.8-----
2024-07-12 02:12 pm-------30.11- 77.7-----
2024-07-12 02:06 pm-------30.11- 78.1-----
2024-07-12 02:00 pm-------30.11-0.01 79.2-----
2024-07-12 01:54 pm-------30.12- 79.0-----
2024-07-12 01:48 pm-------30.12- 79.2-----
2024-07-12 01:42 pm-------30.12- 79.2-----
2024-07-12 01:36 pm-------30.12- 79.0-----
2024-07-12 01:30 pm-------30.12- 79.5-----
2024-07-12 01:24 pm-------30.12- 77.2-----
2024-07-12 01:18 pm-------30.12- 75.9-----
2024-07-12 01:12 pm-------30.12- 75.9-----
2024-07-12 01:06 pm-------30.12- 75.6-----
2024-07-12 01:00 pm-------30.12+0.00 75.7-----
2024-07-12 12:54 pm-------30.12- 75.2-----
2024-07-12 12:48 pm-------30.13- 75.2-----
2024-07-12 12:42 pm-------30.13- 75.6-----
2024-07-12 12:36 pm-------30.13- 75.4-----
2024-07-12 12:30 pm-------30.13- 75.0-----
2024-07-12 12:24 pm-------30.13- 74.8-----
2024-07-12 12:18 pm-------30.13- 74.8-----
2024-07-12 12:12 pm-------30.13- 74.7-----
2024-07-12 12:06 pm-------30.13- 74.7-----
2024-07-12 11:54 am-------30.13- 73.9-----
2024-07-12 11:48 am-------30.13- 74.1-----
2024-07-12 11:42 am-------30.13- 73.9-----
2024-07-12 11:36 am-------30.13- 74.1-----
2024-07-12 11:30 am-------30.13- 74.3-----
2024-07-12 11:24 am-------30.13- 74.3-----
2024-07-12 11:18 am-------30.13- 74.3-----
2024-07-12 11:12 am-------30.12- 74.1-----
2024-07-12 11:06 am-------30.12- 73.8-----
2024-07-12 11:00 am-------30.13+0.01 73.4-----
2024-07-12 10:54 am-------30.13- 73.0-----
2024-07-12 10:48 am-------30.13- 72.5-----
2024-07-12 10:42 am-------30.13- 72.3-----
2024-07-12 10:36 am-------30.13- 72.1-----
2024-07-12 10:30 am-------30.13- 72.1-----
2024-07-12 10:24 am-------30.13- 72.1-----
2024-07-12 10:18 am-------30.13- 71.8-----
2024-07-12 10:12 am-------30.13- 71.6-----
2024-07-12 10:06 am-------30.13- 71.4-----
2024-07-12 10:00 am-------30.13+0.03 71.4-----
2024-07-12 09:54 am-------30.13- 71.2-----
2024-07-12 09:48 am-------30.13- 71.4-----
2024-07-12 09:42 am-------30.13- 71.4-----
2024-07-12 09:36 am-------30.13- 71.2-----
2024-07-12 09:30 am-------30.13- 71.1-----
2024-07-12 09:24 am-------30.13- 71.2-----
2024-07-12 09:18 am-------30.13- 71.1-----
2024-07-12 09:12 am-------30.13- 71.1-----
2024-07-12 09:06 am-------30.13- 70.9-----
2024-07-12 09:00 am-------30.13+0.04 70.7-----
2024-07-12 08:54 am-------30.13- 70.3-----
2024-07-12 08:48 am-------30.13- 70.2-----
2024-07-12 08:42 am-------30.12- 70.0-----
2024-07-12 08:36 am-------30.12- 69.8-----
2024-07-12 08:30 am-------30.12- 69.6-----
2024-07-12 08:24 am-------30.12- 69.4-----
2024-07-12 08:18 am-------30.12- 69.4-----
2024-07-12 08:12 am-------30.12- 69.3-----
2024-07-12 08:06 am-------30.12- 69.4-----
2024-07-12 08:00 am-------30.12+0.04 69.1-----
2024-07-12 07:54 am-------30.12- 68.7-----
2024-07-12 07:48 am-------30.11-------
2024-07-12 07:42 am-------30.11-------
2024-07-12 07:36 am-------30.11-------
2024-07-12 07:30 am-------30.11- 68.7-----
2024-07-12 07:24 am-------30.11- 68.9-----
2024-07-12 07:18 am-------30.11- 68.5-----
2024-07-12 07:12 am-------30.10- 68.4-----
2024-07-12 07:06 am-------30.10- 68.5-----
2024-07-12 07:00 am-------30.10+0.04 68.4-----
2024-07-12 06:54 am-------30.10- 68.4-----
2024-07-12 06:48 am-------30.10- 68.4-----
2024-07-12 06:42 am-------30.10- 68.4-----
2024-07-12 06:36 am-------30.10- 68.4-----
2024-07-12 06:30 am-------30.09- 68.4-----
2024-07-12 06:24 am-------30.09- 68.4-----
2024-07-12 06:18 am-------30.09- 68.2-----
2024-07-12 06:12 am-------30.09- 68.2-----
2024-07-12 06:06 am-------30.09- 68.0-----
2024-07-12 06:00 am-------30.09+0.03 68.0-----
2024-07-12 05:54 am-------30.09- 67.8-----
2024-07-12 05:48 am-------30.08- 68.0-----
2024-07-12 05:42 am-------30.08- 68.4-----
2024-07-12 05:36 am-------30.08- 68.4-----
2024-07-12 05:30 am-------30.08- 68.4-----
2024-07-12 05:24 am-------30.08- 68.4-----
2024-07-12 05:18 am-------30.07- 68.5-----
2024-07-12 05:12 am-------30.07- 68.5-----
2024-07-12 05:06 am-------30.07- 68.5-----
2024-07-12 05:00 am-------30.07+0.02 68.5-----
2024-07-12 04:54 am-------30.07- 68.7-----